| time (UTC) | temp F | wind direction | speed MPH | gust MPH | rain 1hr in | rain 24hr in | rain mn in | humidity % | barometer mb |
| 20260905184606 | 54 | 11 | 2.0 | 4.0 | 0.00 | 0.01 | 0.00 | 90 | 980.3 |
| 20260905184106 | 54 | 23 | 2.0 | 4.0 | 0.00 | 0.01 | 0.00 | 90 | 980.5 |
| 20260905183606 | 54 | 21 | 1.0 | 4.0 | 0.00 | 0.01 | 0.00 | 90 | 980.7 |
| 20260905183107 | 54 | 21 | 1.0 | 5.0 | 0.00 | 0.01 | 0.00 | 91 | 980.6 |
| 20260905182606 | 54 | 21 | 2.0 | 7.0 | 0.00 | 0.01 | 0.00 | 91 | 980.5 |
| 20260905182107 | 54 | 0 | 4.0 | 7.0 | 0.00 | 0.01 | 0.00 | 91 | 980.2 |
| 20260905181606 | 54 | 13 | 4.0 | 7.0 | 0.00 | 0.01 | 0.00 | 91 | 980.1 |
| 20260905181107 | 53 | 0 | 3.0 | 6.0 | 0.00 | 0.01 | 0.00 | 91 | 980.1 |
| 20260905180612 | 53 | 347 | 2.0 | 6.0 | 0.00 | 0.01 | 0.00 | 91 | 980.4 |
| 20260905180606 | 53 | 0 | 4.0 | 6.0 | 0.00 | 0.01 | 0.00 | 91 | 980.3 |
| 20260905175613 | 53 | 348 | 3.0 | 5.0 | 0.01 | 0.01 | 0.00 | 91 | 980.3 |
| 20260905175606 | 53 | 3 | 3.0 | 5.0 | 0.00 | 0.01 | 0.00 | 92 | 980.4 |
| 20260905174604 | 53 | 331 | 3.0 | 6.0 | 0.01 | 0.01 | 0.00 | 91 | 980.4 |
| 20260905174114 | 53 | 329 | 3.0 | 5.0 | 0.01 | 0.01 | 0.00 | 91 | 980.4 |
| 20260905174107 | 53 | 329 | 3.0 | 6.0 | 0.01 | 0.01 | 0.00 | 91 | 980.4 |
| 20260905173107 | 53 | 353 | 3.0 | 6.0 | 0.01 | 0.01 | 0.00 | 91 | 980.4 |
| 20260905172612 | 53 | 347 | 2.0 | 5.0 | 0.01 | 0.01 | 0.00 | 91 | 980.5 |
| 20260905172605 | 53 | 0 | 4.0 | 6.0 | 0.01 | 0.01 | 0.00 | 91 | 980.4 |
| 20260905171604 | 53 | 0 | 3.0 | 5.0 | 0.01 | 0.01 | 0.00 | 91 | 980.2 |
| 20260905171106 | 53 | 345 | 2.0 | 5.0 | 0.01 | 0.01 | 0.00 | 91 | 980.2 |
| 20260905170603 | 53 | 340 | 2.0 | 6.0 | 0.01 | 0.01 | 0.00 | 91 | 980.1 |
| 20260905170104 | 53 | 313 | 4.0 | 7.0 | 0.01 | 0.01 | 0.00 | 91 | 980.2 |
| 20260905165612 | 53 | 313 | 6.0 | 7.0 | 0.00 | 0.00 | 0.00 | 91 | 980.1 |
| 20260905165605 | 53 | 300 | 5.0 | 7.0 | 0.01 | 0.01 | 0.00 | 91 | 980.2 |
| 20260905164603 | 53 | 317 | 5.0 | 7.0 | 0.00 | 0.00 | 0.00 | 91 | 980.2 |
| 20260905164105 | 53 | 351 | 3.0 | 6.0 | 0.00 | 0.00 | 0.00 | 91 | 980.0 |
| 20260905163603 | 53 | 355 | 3.0 | 5.0 | 0.00 | 0.00 | 0.00 | 91 | 979.8 |
| 20260905163104 | 53 | 355 | 3.0 | 4.0 | 0.00 | 0.00 | 0.00 | 91 | 979.9 |
| 20260905162602 | 53 | 354 | 2.0 | 5.0 | 0.00 | 0.00 | 0.00 | 91 | 979.9 |
| 20260905162104 | 53 | 353 | 2.0 | 5.0 | 0.00 | 0.00 | 0.00 | 91 | 979.9 |
| 20260905161603 | 53 | 351 | 3.0 | 4.0 | 0.00 | 0.00 | 0.00 | 90 | 980.0 |
| 20260905161106 | 53 | 0 | 2.0 | 4.0 | 0.00 | 0.00 | 0.00 | 91 | 980.0 |
| 20260905160602 | 53 | 0 | 2.0 | 4.0 | 0.00 | 0.00 | 0.00 | 90 | 979.9 |
| 20260905160107 | 53 | 0 | 1.0 | 4.0 | 0.00 | 0.00 | 0.00 | 90 | 979.9 |
| 20260905155602 | 53 | 0 | 2.0 | 6.0 | 0.00 | 0.00 | 0.00 | 90 | 980.0 |
| 20260905155103 | 53 | 7 | 2.0 | 6.0 | 0.00 | 0.00 | 0.00 | 90 | 979.9 |
| 20260905154601 | 53 | 6 | 5.0 | 6.0 | 0.00 | 0.00 | 0.00 | 90 | 979.8 |
| 20260905154103 | 53 | 6 | 2.0 | 6.0 | 0.00 | 0.00 | 0.00 | 90 | 979.6 |
| 20260905153602 | 53 | 4 | 2.0 | 6.0 | 0.00 | 0.00 | 0.00 | 90 | 979.3 |
| 20260905153103 | 53 | 4 | 2.0 | 5.0 | 0.00 | 0.00 | 0.00 | 90 | 979.4 |
| 20260905152601 | 53 | 3 | 3.0 | 5.0 | 0.00 | 0.00 | 0.00 | 89 | 979.4 |
| 20260905152110 | 53 | 0 | 5.0 | 9.0 | 0.00 | 0.00 | 0.00 | 89 | 979.3 |
| 20260905152103 | 53 | 0 | 2.0 | 9.0 | 0.00 | 0.00 | 0.00 | 89 | 979.3 |
| 20260905151104 | 54 | 7 | 5.0 | 7.0 | 0.00 | 0.00 | 0.00 | 89 | 979.2 |
| 20260905150601 | 54 | 30 | 3.0 | 4.0 | 0.00 | 0.00 | 0.00 | 89 | 979.3 |
| 20260905145600 | 54 | 48 | 3.0 | 5.0 | 0.00 | 0.00 | 0.00 | 88 | 979.4 |
| 20260905145102 | 54 | 24 | 2.0 | 4.0 | 0.00 | 0.00 | 0.00 | 88 | 979.5 |
| 20260905144608 | 54 | 23 | 2.0 | 4.0 | 0.00 | 0.00 | 0.00 | 89 | 979.7 |
| 20260905144601 | 54 | 24 | 1.0 | 4.0 | 0.00 | 0.00 | 0.00 | 88 | 979.5 |
| 20260905143600 | 54 | 23 | 1.0 | 4.0 | 0.00 | 0.00 | 0.00 | 89 | 979.5 |
| 20260905143103 | 54 | 21 | 2.0 | 3.0 | 0.00 | 0.00 | 0.00 | 88 | 979.4 |
| 20260905142600 | 54 | 23 | 1.0 | 5.0 | 0.00 | 0.00 | 0.00 | 89 | 979.5 |
| 20260905142101 | 54 | 21 | 2.0 | 7.0 | 0.00 | 0.00 | 0.00 | 89 | 979.0 |
| 20260905141608 | 54 | 0 | 5.0 | 7.0 | 0.00 | 0.00 | 0.00 | 89 | 978.7 |
| 20260905141600 | 54 | 1 | 4.0 | 7.0 | 0.00 | 0.00 | 0.00 | 89 | 979.0 |
| 20260905140559 | 54 | 27 | 3.0 | 5.0 | 0.00 | 0.00 | 0.00 | 89 | 978.8 |
| 20260905135601 | 54 | 61 | 4.0 | 6.0 | 0.00 | 0.00 | 0.00 | 89 | 978.6 |
| 20260905135101 | 54 | 13 | 1.0 | 5.0 | 0.00 | 0.00 | 0.00 | 89 | 978.6 |
| 20260905134600 | 54 | 11 | 2.0 | 7.0 | 0.00 | 0.00 | 0.00 | 88 | 978.8 |
| 20260905134100 | 54 | 10 | 6.0 | 7.0 | 0.00 | 0.00 | 0.00 | 88 | 978.6 |
| 20260905133605 | 54 | 16 | 2.0 | 9.0 | 0.00 | 0.00 | 0.00 | 88 | 978.8 |
| 20260905133558 | 54 | 16 | 2.0 | 4.0 | 0.00 | 0.00 | 0.00 | 88 | 978.8 |
| 20260905132559 | 54 | 11 | 3.0 | 9.0 | 0.00 | 0.00 | 0.00 | 88 | 978.1 |
| 20260905132102 | 55 | 8 | 4.0 | 7.0 | 0.00 | 0.00 | 0.00 | 88 | 978.2 |
| 20260905131606 | 55 | 3 | 6.0 | 9.0 | 0.00 | 0.00 | 0.00 | 87 | 978.4 |
| 20260905131559 | 55 | 7 | 4.0 | 9.0 | 0.00 | 0.00 | 0.00 | 87 | 978.4 |
| 20260905130558 | 55 | 6 | 4.0 | 6.0 | 0.00 | 0.00 | 0.00 | 87 | 978.4 |
| 20260905130059 | 55 | 8 | 3.0 | 5.0 | 0.00 | 0.00 | 0.00 | 87 | 978.1 |
| 20260905125558 | 55 | 10 | 1.0 | 5.0 | 0.00 | 0.00 | 0.00 | 87 | 978.3 |
| 20260905125058 | 55 | 340 | 1.0 | 5.0 | 0.00 | 0.00 | 0.00 | 87 | 978.6 |
| 20260905124559 | 55 | 350 | 3.0 | 5.0 | 0.00 | 0.00 | 0.00 | 87 | 979.0 |
| 20260905124059 | 55 | 0 | 1.0 | 4.0 | 0.00 | 0.00 | 0.00 | 86 | 979.2 |
| 20260905123606 | 55 | 0 | 1.0 | 2.0 | 0.00 | 0.00 | 0.00 | 86 | 978.8 |
| 20260905123559 | 55 | 0 | 2.0 | 3.0 | 0.00 | 0.00 | 0.00 | 86 | 978.8 |
| 20260905122605 | 54 | 0 | 0.0 | 1.0 | 0.00 | 0.00 | 0.00 | 86 | 978.5 |
| 20260905122557 | 54 | 0 | 0.0 | 1.0 | 0.00 | 0.00 | 0.00 | 86 | 978.7 |
| 20260905121603 | 54 | 0 | 0.0 | 0.0 | 0.00 | 0.00 | 0.00 | 86 | 978.4 |
| 20260905121555 | 54 | 0 | 0.0 | 1.0 | 0.00 | 0.00 | 0.00 | 86 | 978.4 |
| 20260905120557 | 54 | 0 | 0.0 | 0.0 | 0.00 | 0.00 | 0.00 | 86 | 978.4 |
| 20260905120224 | 54 | 0 | 0.0 | 3.0 | 0.00 | 0.00 | 0.00 | 86 | 978.0 |
| 20260905120111 | 54 | 0 | 0.0 | 0.0 | 0.00 | 0.00 | 0.00 | 86 | 978.2 |
| 20260905114556 | 54 | 0 | 0.0 | 3.0 | 0.00 | 0.00 | 0.00 | 86 | 977.9 |
| 20260905114057 | 54 | 0 | 0.0 | 5.0 | 0.00 | 0.00 | 0.00 | 86 | 977.6 |
| 20260905113556 | 54 | 347 | 1.0 | 5.0 | 0.00 | 0.00 | 0.00 | 85 | 977.5 |
| 20260905113056 | 54 | 262 | 0.0 | 3.0 | 0.00 | 0.00 | 0.00 | 85 | 977.7 |
| 20260905112557 | 54 | 262 | 0.0 | 2.0 | 0.00 | 0.00 | 0.00 | 85 | 978.0 |
| 20260905112057 | 54 | 262 | 0.0 | 2.0 | 0.00 | 0.00 | 0.00 | 85 | 978.0 |
| 20260905111557 | 54 | 262 | 0.0 | 2.0 | 0.00 | 0.00 | 0.00 | 85 | 978.2 |
| 20260905111058 | 54 | 262 | 0.0 | 3.0 | 0.00 | 0.00 | 0.00 | 85 | 978.3 |
| 20260905110555 | 54 | 262 | 0.0 | 3.0 | 0.00 | 0.00 | 0.00 | 85 | 978.3 |
| 20260905110058 | 54 | 262 | 0.0 | 1.0 | 0.00 | 0.00 | 0.00 | 85 | 978.3 |
| 20260905105555 | 54 | 262 | 0.0 | 1.0 | 0.00 | 0.00 | 0.00 | 85 | 978.1 |
| 20260905105056 | 54 | 262 | 0.0 | 1.0 | 0.00 | 0.00 | 0.00 | 85 | 977.8 |
| 20260905104556 | 54 | 262 | 0.0 | 1.0 | 0.00 | 0.00 | 0.00 | 85 | 977.8 |
| 20260905104057 | 54 | 262 | 0.0 | 1.0 | 0.00 | 0.00 | 0.00 | 85 | 977.9 |
| 20260905103555 | 54 | 262 | 0.0 | 1.0 | 0.00 | 0.00 | 0.00 | 84 | 978.0 |
| 20260905103055 | 53 | 261 | 0.0 | 2.0 | 0.00 | 0.00 | 0.00 | 84 | 977.9 |
| 20260905102056 | 53 | 261 | 0.0 | 1.0 | 0.00 | 0.00 | 0.00 | 84 | 978.1 |
| 20260905101553 | 53 | 261 | 0.0 | 2.0 | 0.00 | 0.00 | 0.00 | 84 | 978.0 |
| 20260905101055 | 53 | 261 | 0.0 | 2.0 | 0.00 | 0.00 | 0.00 | 84 | 977.8 |
| 20260905100554 | 53 | 259 | 0.0 | 1.0 | 0.00 | 0.00 | 0.00 | 84 | 977.8 |
| 20260905100056 | 53 | 259 | 0.0 | 0.0 | 0.00 | 0.00 | 0.00 | 84 | 977.7 |
| 20260905095555 | 53 | 259 | 0.0 | 1.0 | 0.00 | 0.00 | 0.00 | 84 | 977.7 |
| 20260905095055 | 53 | 259 | 0.0 | 1.0 | 0.00 | 0.00 | 0.00 | 83 | 977.7 |
| 20260905094600 | 53 | 259 | 0.0 | 0.0 | 0.00 | 0.00 | 0.00 | 83 | 977.5 |
| 20260905094554 | 53 | 259 | 0.0 | 0.0 | 0.00 | 0.00 | 0.00 | 83 | 977.4 |
| 20260905093552 | 53 | 259 | 0.0 | 6.0 | 0.00 | 0.00 | 0.00 | 83 | 977.5 |
| 20260905093055 | 53 | 258 | 0.0 | 6.0 | 0.00 | 0.00 | 0.00 | 83 | 977.7 |
| 20260905092553 | 53 | 227 | 0.0 | 4.0 | 0.00 | 0.00 | 0.00 | 83 | 977.8 |
| 20260905092054 | 53 | 262 | 0.0 | 1.0 | 0.00 | 0.00 | 0.00 | 82 | 977.5 |
| 20260905091553 | 53 | 261 | 0.0 | 0.0 | 0.00 | 0.00 | 0.00 | 81 | 977.2 |
| 20260905091055 | 53 | 261 | 0.0 | 0.0 | 0.00 | 0.00 | 0.00 | 81 | 977.1 |
| 20260905090552 | 53 | 261 | 0.0 | 0.0 | 0.00 | 0.00 | 0.00 | 81 | 977.2 |
| 20260905090055 | 52 | 261 | 0.0 | 0.0 | 0.00 | 0.00 | 0.00 | 80 | 977.4 |
| 20260905085559 | 53 | 261 | 0.0 | 1.0 | 0.00 | 0.00 | 0.00 | 80 | 977.4 |
| 20260905085553 | 53 | 261 | 0.0 | 1.0 | 0.00 | 0.00 | 0.00 | 80 | 977.3 |
| 20260905084552 | 52 | 261 | 0.0 | 1.0 | 0.00 | 0.00 | 0.00 | 79 | 977.4 |
| 20260905084100 | 53 | 261 | 0.0 | 1.0 | 0.00 | 0.00 | 0.00 | 79 | 977.5 |
| 20260905084052 | 52 | 261 | 0.0 | 1.0 | 0.00 | 0.00 | 0.00 | 79 | 977.5 |
| 20260905083053 | 53 | 261 | 0.0 | 0.0 | 0.00 | 0.00 | 0.00 | 78 | 977.4 |
| 20260905082553 | 53 | 261 | 0.0 | 1.0 | 0.00 | 0.00 | 0.00 | 76 | 977.3 |
| 20260905082052 | 53 | 261 | 0.0 | 1.0 | 0.00 | 0.00 | 0.00 | 76 | 977.4 |
| 20260905081558 | 53 | 261 | 0.0 | 0.0 | 0.00 | 0.00 | 0.00 | 75 | 977.0 |
| 20260905081551 | 53 | 261 | 0.0 | 1.0 | 0.00 | 0.00 | 0.00 | 75 | 977.2 |
| 20260905080551 | 53 | 261 | 0.0 | 1.0 | 0.00 | 0.00 | 0.00 | 75 | 977.0 |
| 20260905080053 | 53 | 261 | 0.0 | 1.0 | 0.00 | 0.00 | 0.00 | 74 | 976.9 |
| 20260905075550 | 53 | 261 | 0.0 | 1.0 | 0.00 | 0.00 | 0.00 | 73 | 976.6 |
| 20260905075053 | 54 | 261 | 0.0 | 1.0 | 0.00 | 0.00 | 0.00 | 71 | 976.7 |
| 20260905074550 | 54 | 261 | 0.0 | 0.0 | 0.00 | 0.00 | 0.00 | 71 | 976.9 |
| 20260905074059 | 54 | 261 | 0.0 | 0.0 | 0.00 | 0.00 | 0.00 | 68 | 976.6 |
| 20260905074051 | 54 | 261 | 0.0 | 0.0 | 0.00 | 0.00 | 0.00 | 70 | 976.7 |
| 20260905073714 | 54 | 261 | 0.0 | 0.0 | 0.00 | 0.00 | 0.00 | 68 | 976.9 |
| 20260905072550 | 54 | 261 | 0.0 | 0.0 | 0.00 | 0.00 | 0.00 | 68 | 976.9 |
| 20260905072050 | 54 | 261 | 0.0 | 0.0 | 0.00 | 0.00 | 0.00 | 67 | 976.7 |
| 20260905071550 | 54 | 261 | 0.0 | 0.0 | 0.00 | 0.00 | 0.00 | 68 | 976.6 |
| 20260905071058 | 55 | 261 | 0.0 | 0.0 | 0.00 | 0.00 | 0.00 | 68 | 976.4 |
| 20260905071051 | 54 | 261 | 0.0 | 0.0 | 0.00 | 0.00 | 0.00 | 68 | 976.4 |
| 20260905070716 | 55 | 261 | 0.0 | 0.0 | 0.00 | 0.00 | 0.00 | 67 | 976.3 |
| 20260905065550 | 55 | 261 | 0.0 | 2.0 | 0.00 | 0.00 | 0.00 | 67 | 976.4 |
| 20260905065051 | 55 | 261 | 0.0 | 2.0 | 0.00 | 0.00 | 0.00 | 67 | 976.9 |
| 20260905064548 | 55 | 261 | 0.0 | 0.0 | 0.00 | 0.00 | 0.00 | 67 | 976.3 |
| 20260905064050 | 55 | 261 | 0.0 | 0.0 | 0.00 | 0.00 | 0.00 | 68 | 976.4 |
| 20260905063549 | 56 | 261 | 0.0 | 0.0 | 0.00 | 0.00 | 0.00 | 64 | 976.1 |
| 20260905063050 | 56 | 261 | 0.0 | 0.0 | 0.00 | 0.00 | 0.00 | 62 | 976.0 |
| 20260905062548 | 56 | 261 | 0.0 | 0.0 | 0.00 | 0.00 | 0.00 | 61 | 976.1 |
| 20260905062051 | 57 | 261 | 0.0 | 0.0 | 0.00 | 0.00 | 0.00 | 61 | 976.0 |
| 20260905061549 | 57 | 261 | 0.0 | 0.0 | 0.00 | 0.00 | 0.00 | 61 | 976.0 |
| 20260905061050 | 57 | 261 | 0.0 | 0.0 | 0.00 | 0.00 | 0.00 | 60 | 975.9 |
| 20260905060548 | 57 | 261 | 0.0 | 0.0 | 0.00 | 0.00 | 0.00 | 61 | 975.9 |
| 20260905060055 | 58 | 261 | 0.0 | 0.0 | 0.00 | 0.00 | 0.00 | 58 | 976.3 |
| 20260905060048 | 58 | 261 | 0.0 | 0.0 | 0.00 | 0.00 | 0.00 | 59 | 976.2 |
| 20260905055050 | 58 | 261 | 0.0 | 0.0 | 0.00 | 0.00 | 0.00 | 57 | 976.3 |
| 20260905054547 | 58 | 262 | 0.0 | 0.0 | 0.00 | 0.00 | 0.00 | 58 | 976.3 |
| 20260905054049 | 58 | 262 | 0.0 | 1.0 | 0.00 | 0.00 | 0.00 | 58 | 976.4 |
| 20260905053546 | 58 | 262 | 0.0 | 2.0 | 0.00 | 0.00 | 0.00 | 56 | 976.3 |
| 20260905053048 | 58 | 262 | 0.0 | 2.0 | 0.00 | 0.00 | 0.00 | 56 | 976.3 |
| 20260905052547 | 58 | 261 | 0.0 | 1.0 | 0.00 | 0.00 | 0.00 | 56 | 976.4 |
| 20260905052049 | 59 | 262 | 0.0 | 1.0 | 0.00 | 0.00 | 0.00 | 56 | 976.5 |
| 20260905051553 | 59 | 262 | 0.0 | 2.0 | 0.00 | 0.00 | 0.00 | 56 | 976.4 |
| 20260905051546 | 59 | 262 | 0.0 | 0.0 | 0.00 | 0.00 | 0.00 | 56 | 976.6 |
| 20260905050547 | 59 | 262 | 0.0 | 2.0 | 0.00 | 0.00 | 0.00 | 56 | 976.5 |
| 20260905050049 | 59 | 259 | 0.0 | 4.0 | 0.00 | 0.00 | 0.00 | 57 | 976.4 |
| 20260905045546 | 59 | 257 | 0.0 | 4.0 | 0.00 | 0.00 | 0.00 | 56 | 976.1 |
| 20260905045046 | 59 | 255 | 0.0 | 3.0 | 0.00 | 0.00 | 0.00 | 56 | 975.7 |
| 20260905044545 | 59 | 207 | 0.0 | 0.0 | 0.00 | 0.00 | 0.00 | 56 | 975.6 |
| 20260905044056 | 59 | 203 | 0.0 | 1.0 | 0.00 | 0.00 | 0.00 | 55 | 975.4 |
| 20260905044047 | 59 | 203 | 0.0 | 1.0 | 0.00 | 0.00 | 0.00 | 55 | 975.7 |
| 20260905043709 | 59 | 203 | 0.0 | 1.0 | 0.00 | 0.00 | 0.00 | 53 | 975.2 |
| 20260905042547 | 60 | 203 | 0.0 | 3.0 | 0.00 | 0.00 | 0.00 | 52 | 975.0 |
| 20260905042212 | 60 | 203 | 0.0 | 2.0 | 0.00 | 0.00 | 0.00 | 51 | 975.0 |
| 20260905041047 | 60 | 202 | 0.0 | 4.0 | 0.00 | 0.00 | 0.00 | 51 | 975.1 |
| 20260905040545 | 60 | 202 | 0.0 | 4.0 | 0.00 | 0.00 | 0.00 | 51 | 975.1 |
| 20260905040046 | 60 | 203 | 0.0 | 2.0 | 0.00 | 0.00 | 0.00 | 51 | 975.0 |
| 20260905035551 | 60 | 234 | 0.0 | 2.0 | 0.00 | 0.00 | 0.00 | 51 | 975.0 |
| 20260905035544 | 60 | 234 | 0.0 | 2.0 | 0.00 | 0.00 | 0.00 | 52 | 974.8 |
| 20260905034544 | 61 | 234 | 0.0 | 0.0 | 0.00 | 0.00 | 0.00 | 53 | 975.2 |
| 20260905034047 | 61 | 234 | 0.0 | 0.0 | 0.00 | 0.00 | 0.00 | 55 | 975.1 |
| 20260905033545 | 61 | 234 | 0.0 | 0.0 | 0.00 | 0.00 | 0.00 | 51 | 975.1 |
| 20260905033055 | 61 | 234 | 0.0 | 1.0 | 0.00 | 0.00 | 0.00 | 51 | 975.5 |
| 20260905033048 | 61 | 234 | 0.0 | 0.0 | 0.00 | 0.00 | 0.00 | 51 | 975.2 |
| 20260905032045 | 61 | 234 | 0.0 | 1.0 | 0.00 | 0.00 | 0.00 | 50 | 975.5 |
| 20260905031544 | 61 | 248 | 0.0 | 1.0 | 0.00 | 0.00 | 0.00 | 52 | 975.6 |
| 20260905031044 | 61 | 248 | 0.0 | 3.0 | 0.00 | 0.00 | 0.00 | 53 | 975.4 |
| 20260905030545 | 61 | 250 | 0.0 | 3.0 | 0.00 | 0.00 | 0.00 | 54 | 975.2 |
| 20260905030044 | 61 | 261 | 0.0 | 1.0 | 0.00 | 0.00 | 0.00 | 56 | 975.1 |
| 20260905025545 | 61 | 265 | 0.0 | 1.0 | 0.00 | 0.00 | 0.00 | 57 | 975.0 |
| 20260905025045 | 62 | 266 | 0.0 | 1.0 | 0.00 | 0.00 | 0.00 | 56 | 974.9 |
| 20260905024542 | 62 | 266 | 0.0 | 0.0 | 0.00 | 0.00 | 0.00 | 56 | 974.8 |
| 20260905024044 | 62 | 266 | 0.0 | 1.0 | 0.00 | 0.00 | 0.00 | 55 | 974.8 |
| 20260905023551 | 62 | 268 | 0.0 | 0.0 | 0.00 | 0.00 | 0.00 | 55 | 974.4 |
| 20260905023543 | 62 | 266 | 0.0 | 1.0 | 0.00 | 0.00 | 0.00 | 54 | 974.5 |
| 20260905022542 | 62 | 268 | 0.0 | 0.0 | 0.00 | 0.00 | 0.00 | 55 | 974.4 |
| 20260905022045 | 63 | 268 | 0.0 | 3.0 | 0.00 | 0.00 | 0.00 | 54 | 974.4 |
| 20260905021542 | 63 | 268 | 0.0 | 3.0 | 0.00 | 0.00 | 0.00 | 54 | 974.3 |
| 20260905021059 | 64 | 319 | 0.0 | 2.0 | 0.00 | 0.00 | 0.00 | 54 | 974.2 |
| 20260905021049 | 63 | 319 | 0.0 | 2.0 | 0.00 | 0.00 | 0.00 | 55 | 974.3 |
| 20260905020044 | 64 | 319 | 0.0 | 2.0 | 0.00 | 0.00 | 0.00 | 53 | 974.1 |
| 20260905015542 | 64 | 319 | 0.0 | 3.0 | 0.00 | 0.00 | 0.00 | 52 | 974.0 |
| 20260905015042 | 65 | 319 | 0.0 | 3.0 | 0.00 | 0.00 | 0.00 | 51 | 973.8 |
| 20260905014542 | 65 | 319 | 0.0 | 6.0 | 0.00 | 0.00 | 0.00 | 51 | 973.9 |
| 20260905014043 | 65 | 319 | 0.0 | 6.0 | 0.00 | 0.00 | 0.00 | 51 | 973.8 |
| 20260905013542 | 66 | 333 | 0.0 | 3.0 | 0.00 | 0.00 | 0.00 | 48 | 973.4 |
| 20260905013043 | 66 | 358 | 0.0 | 3.0 | 0.00 | 0.00 | 0.00 | 48 | 973.4 |
| 20260905012542 | 67 | 358 | 0.0 | 3.0 | 0.00 | 0.00 | 0.00 | 47 | 973.2 |
| 20260905012042 | 67 | 358 | 0.0 | 2.0 | 0.00 | 0.00 | 0.00 | 47 | 973.4 |
| 20260905011541 | 67 | 358 | 0.0 | 2.0 | 0.00 | 0.00 | 0.00 | 45 | 973.7 |
| 20260905011042 | 68 | 0 | 0.0 | 0.0 | 0.00 | 0.00 | 0.00 | 46 | 973.8 |
| 20260905010540 | 68 | 0 | 0.0 | 4.0 | 0.00 | 0.00 | 0.00 | 44 | 973.7 |
| 20260905010043 | 68 | 0 | 0.0 | 4.0 | 0.00 | 0.00 | 0.00 | 44 | 973.5 |
| 20260905005540 | 69 | 355 | 0.0 | 2.0 | 0.00 | 0.00 | 0.00 | 44 | 973.4 |
| 20260905005042 | 69 | 358 | 0.0 | 0.0 | 0.00 | 0.00 | 0.00 | 44 | 973.5 |
| 20260905004540 | 69 | 358 | 0.0 | 3.0 | 0.00 | 0.00 | 0.00 | 43 | 973.4 |
| 20260905004042 | 69 | 358 | 2.0 | 3.0 | 0.00 | 0.00 | 0.00 | 43 | 973.3 |
| 20260905003539 | 69 | 357 | 0.0 | 6.0 | 0.00 | 0.00 | 0.00 | 42 | 973.3 |
| 20260905003041 | 70 | 357 | 0.0 | 6.0 | 0.00 | 0.00 | 0.00 | 41 | 973.3 |
| 20260905002546 | 70 | 0 | 2.0 | 5.0 | 0.00 | 0.00 | 0.00 | 40 | 973.3 |
| 20260905002540 | 70 | 0 | 4.0 | 6.0 | 0.00 | 0.00 | 0.00 | 41 | 973.3 |
| 20260905001548 | 71 | 338 | 4.0 | 7.0 | 0.00 | 0.00 | 0.00 | 39 | 973.3 |
| 20260905001540 | 70 | 343 | 1.0 | 7.0 | 0.00 | 0.00 | 0.00 | 40 | 973.3 |
| 20260905000540 | 71 | 282 | 4.0 | 7.0 | 0.00 | 0.00 | 0.00 | 39 | 973.3 |
| 20260905000040 | 71 | 276 | 2.0 | 6.0 | 0.00 | 0.00 | 0.00 | 39 | 973.2 |
| 20260904235538 | 71 | 300 | 0.0 | 9.0 | 0.00 | 0.00 | 0.00 | 37 | 973.2 |
| 20260904235040 | 72 | 302 | 4.0 | 9.0 | 0.00 | 0.00 | 0.00 | 38 | 973.0 |
| 20260904234546 | 72 | 293 | 5.0 | 9.0 | 0.00 | 0.00 | 0.00 | 36 | 972.9 |
| 20260904234538 | 72 | 323 | 3.0 | 7.0 | 0.00 | 0.00 | 0.00 | 37 | 972.9 |
| 20260904233545 | 73 | 310 | 7.0 | 12.0 | 0.00 | 0.00 | 0.00 | 36 | 972.9 |
| 20260904233538 | 72 | 293 | 5.0 | 11.0 | 0.00 | 0.00 | 0.00 | 36 | 972.9 |
| 20260904232539 | 73 | 289 | 7.0 | 14.0 | 0.00 | 0.00 | 0.00 | 36 | 972.9 |
| 20260904232049 | 73 | 289 | 2.0 | 13.0 | 0.00 | 0.00 | 0.00 | 37 | 972.9 |
| 20260904232040 | 73 | 286 | 11.0 | 14.0 | 0.00 | 0.00 | 0.00 | 35 | 973.0 |
| 20260904231048 | 74 | 257 | 6.0 | 11.0 | 0.00 | 0.00 | 0.00 | 36 | 972.8 |
| 20260904231040 | 73 | 266 | 5.0 | 13.0 | 0.00 | 0.00 | 0.00 | 35 | 972.9 |
| 20260904230039 | 74 | 233 | 5.0 | 11.0 | 0.00 | 0.00 | 0.00 | 35 | 972.8 |
| 20260904225538 | 74 | 288 | 4.0 | 12.0 | 0.00 | 0.00 | 0.00 | 36 | 972.8 |
| 20260904225040 | 74 | 282 | 6.0 | 12.0 | 0.00 | 0.00 | 0.00 | 36 | 972.5 |
| 20260904224546 | 74 | 257 | 8.0 | 13.0 | 0.00 | 0.00 | 0.00 | 36 | 972.5 |
| 20260904224538 | 74 | 0 | 1.0 | 13.0 | 0.00 | 0.00 | 0.00 | 37 | 972.4 |
| 20260904223536 | 74 | 285 | 6.0 | 13.0 | 0.00 | 0.00 | 0.00 | 35 | 972.3 |
| 20260904223038 | 74 | 338 | 6.0 | 13.0 | 0.00 | 0.00 | 0.00 | 34 | 972.3 |
| 20260904222537 | 74 | 307 | 4.0 | 9.0 | 0.00 | 0.00 | 0.00 | 35 | 972.3 |
| 20260904222046 | 74 | 314 | 6.0 | 10.0 | 0.00 | 0.00 | 0.00 | 34 | 972.3 |
| 20260904222038 | 74 | 355 | 3.0 | 10.0 | 0.00 | 0.00 | 0.00 | 35 | 972.3 |
| 20260904221042 | 74 | 250 | 4.0 | 10.0 | 0.00 | 0.00 | 0.00 | 36 | 972.2 |
| 20260904220536 | 74 | 292 | 4.0 | 12.0 | 0.00 | 0.00 | 0.00 | 36 | 972.2 |
| 20260904220046 | 73 | 312 | 6.0 | 12.0 | 0.00 | 0.00 | 0.00 | 35 | 972.2 |
| 20260904220037 | 74 | 289 | 3.0 | 12.0 | 0.00 | 0.00 | 0.00 | 37 | 972.2 |
| 20260904215037 | 73 | 285 | 3.0 | 12.0 | 0.00 | 0.00 | 0.00 | 36 | 972.2 |
| 20260904214536 | 73 | 285 | 6.0 | 12.0 | 0.00 | 0.00 | 0.00 | 36 | 972.1 |
| 20260904214046 | 73 | 302 | 10.0 | 17.0 | 0.00 | 0.00 | 0.00 | 36 | 972.0 |
| 20260904214038 | 73 | 293 | 7.0 | 17.0 | 0.00 | 0.00 | 0.00 | 35 | 972.0 |
| 20260904213037 | 74 | 289 | 10.0 | 16.0 | 0.00 | 0.00 | 0.00 | 36 | 972.1 |
| 20260904212536 | 74 | 269 | 5.0 | 14.0 | 0.00 | 0.00 | 0.00 | 35 | 972.0 |
| 20260904212036 | 73 | 269 | 5.0 | 14.0 | 0.00 | 0.00 | 0.00 | 37 | 972.0 |
| 20260904211535 | 73 | 321 | 4.0 | 13.0 | 0.00 | 0.00 | 0.00 | 37 | 971.8 |
| 20260904211045 | 73 | 313 | 6.0 | 12.0 | 0.00 | 0.00 | 0.00 | 37 | 971.8 |
| 20260904211036 | 73 | 314 | 7.0 | 13.0 | 0.00 | 0.00 | 0.00 | 37 | 971.8 |
| 20260904210659 | 73 | 314 | 9.0 | 13.0 | 0.00 | 0.00 | 0.00 | 38 | 971.6 |
| 20260904205535 | 73 | 296 | 4.0 | 14.0 | 0.00 | 0.00 | 0.00 | 38 | 971.6 |
| 20260904205044 | 72 | 10 | 2.0 | 13.0 | 0.00 | 0.00 | 0.00 | 39 | 971.7 |
| 20260904205037 | 73 | 314 | 8.0 | 14.0 | 0.00 | 0.00 | 0.00 | 38 | 971.6 |
| 20260904204659 | 72 | 329 | 5.0 | 15.0 | 0.00 | 0.00 | 0.00 | 38 | 971.8 |
| 20260904203534 | 72 | 292 | 5.0 | 15.0 | 0.00 | 0.00 | 0.00 | 39 | 971.8 |
| 20260904203035 | 72 | 283 | 6.0 | 16.0 | 0.00 | 0.00 | 0.00 | 39 | 971.8 |
| 20260904202540 | 71 | 292 | 7.0 | 15.0 | 0.00 | 0.00 | 0.00 | 40 | 971.8 |
| 20260904202534 | 72 | 306 | 7.0 | 16.0 | 0.00 | 0.00 | 0.00 | 40 | 971.9 |
| 20260904201533 | 71 | 306 | 7.0 | 15.0 | 0.00 | 0.00 | 0.00 | 39 | 971.8 |
| 20260904201037 | 71 | 262 | 6.0 | 12.0 | 0.00 | 0.00 | 0.00 | 41 | 971.9 |
| 20260904200540 | 69 | 324 | 4.0 | 15.0 | 0.00 | 0.00 | 0.00 | 41 | 971.8 |
| 20260904200534 | 70 | 261 | 4.0 | 15.0 | 0.00 | 0.00 | 0.00 | 42 | 971.8 |
| 20260904195532 | 69 | 8 | 5.0 | 19.0 | 0.00 | 0.00 | 0.00 | 40 | 971.8 |
| 20260904195034 | 69 | 317 | 9.0 | 19.0 | 0.00 | 0.00 | 0.00 | 40 | 971.9 |
| 20260904194532 | 68 | 324 | 7.0 | 14.0 | 0.00 | 0.00 | 0.00 | 42 | 971.9 |
| 20260904194041 | 68 | 295 | 2.0 | 14.0 | 0.00 | 0.00 | 0.00 | 44 | 971.8 |
| 20260904193532 | 67 | 329 | 6.0 | 13.0 | 0.00 | 0.00 | 0.00 | 42 | 971.9 |
| 20260904193034 | 66 | 319 | 2.0 | 13.0 | 0.00 | 0.00 | 0.00 | 45 | 971.9 |
| 20260904192533 | 65 | 348 | 0.0 | 14.0 | 0.00 | 0.00 | 0.00 | 47 | 971.7 |
| 20260904192042 | 64 | 334 | 0.0 | 12.0 | 0.00 | 0.00 | 0.00 | 48 | 971.8 |
| 20260904192034 | 64 | 314 | 6.0 | 14.0 | 0.00 | 0.00 | 0.00 | 46 | 971.7 |
| 20260904191042 | 63 | 327 | 3.0 | 13.0 | 0.00 | 0.00 | 0.00 | 48 | 971.7 |
| 20260904190531 | 62 | 283 | 2.0 | 15.0 | 0.00 | 0.00 | 0.00 | 50 | 971.7 |
| 20260904190037 | 62 | 317 | 6.0 | 15.0 | 0.00 | 0.00 | 0.00 | 48 | 971.8 |
| 20260904185531 | 62 | 303 | 4.0 | 16.0 | 0.00 | 0.00 | 0.00 | 48 | 971.8 |
| 20260904185038 | 63 | 255 | 9.0 | 16.0 | 0.00 | 0.00 | 0.00 | 49 | 971.9 |